Simultaneous Nadir Overpasses (SNOs) Predictions

Prediction of SNOs between GOES-17 and NOAA-19 Satellite Orbit:

Table of predicted SNOs for the next 14.0 days since TLE Epoch: 5/13/2023
Index Date Time (GOES-17) GOES-17 Lat,Lon NOAA-19 Lat,Lon Distance(km) Time Diff (sec)
1 05/13/2023 15:42:24 -0.01,-104.74 0.75,-107.93 364.62 80
2 05/14/2023 15:30:23 -0.01,-104.75 0.05,-105.01 30.26 80
3 05/15/2023 15:21:03 -0.01,-104.75 -0.65,-102.09 304.19 80
4 05/18/2023 03:41:14 0.01,-104.71 -0.46,-106.88 246.79 80
5 05/19/2023 03:26:32 0.00,-104.72 0.20,-103.95 87.85 80
6 05/20/2023 03:14:31 0.00,-104.72 0.87,-101.02 422.41 80
7 05/21/2023 15:46:40 0.00,-104.77 0.90,-108.73 451.87 80
8 05/22/2023 15:34:39 0.01,-104.77 0.24,-105.80 117.33 80
9 05/23/2023 15:25:17 0.01,-104.78 -0.42,-102.87 217.19 80
10 05/26/2023 03:45:26 0.01,-104.74 -0.66,-107.66 332.87 80
